Weather History for Ypsilanti, MI

Change the Weather History Date:

Wednesday, October 5, 2011

  Actual Average Record
Temperature  
Mean Temperature 62 °F -  
Max Temperature 78 °F 66 °F 86 °F (2007)
Min Temperature 48 °F 45 °F 28 °F (2003)
Degree Days  
Heating Degree Days 4    
Growing Degree Days 12 (Base 50)    
Moisture  
Dew Point 47 °F    
Average Humidity 63    
Maximum Humidity 86    
Minimum Humidity 32    
Precipitation  
Precipitation 0.00 in - - ()
Sea Level Pressure  
Sea Level Pressure 30.27 in    
Wind  
Wind Speed 0 mph (NNE)    
Max Wind Speed 6 mph    
Max Gust Speed -    
Visibility 10 miles    
Events      
Averages and records for this station are not official NWS values.
T = Trace of Precipitation, MM = Missing Value Source: NWS Daily Summary

Daily Weather History Graph

Daily Weather History Graph

Search for Another Location

Airport:

Trip Planner

Search our weather history database for the weather conditions in past years. The results will help you decide how hot, cold, wet, or windy it might be!

Date:

Astronomy

Oct. 05, 2011 Rise Set
Actual Time 7:35 AM EDT 7:09 PM EDT
Civil Twilight 7:07 AM EDT 7:37 PM EDT
Nautical Twilight 6:34 AM EDT 8:09 PM EDT
Astronomical Twilight 6:02 AM EDT 8:42 PM EDT
Moon 3:54 PM EDT (10/5) 1:13 AM EDT (10/5)
Length of Visible Light 12h 29m
Length of Day
11h 33m
Waxing Gibbous, 66% of the Moon is Illuminated
Oct 5
Waxing Gibbous
Oct 11
Full
Oct 19
Last Quarter
Oct 26
New
Nov 2
First Quarter

Hourly Weather History & Observations

Time (EDT) Temp. Dew Point Humidity Pressure Visibility Wind Dir Wind Speed Gust Speed Precip Events Conditions
12:53 AM 53.1 °F 46.9 °F 80% 30.23 in 10.0 mi Calm Calm - N/A   Clear
1:53 AM 50.0 °F 46.0 °F 86% 30.24 in 10.0 mi Calm Calm - N/A   Clear
2:53 AM 50.0 °F 44.6 °F 82% 30.25 in 10.0 mi Calm Calm - N/A   Clear
3:53 AM 50.0 °F 45.0 °F 83% 30.24 in 10.0 mi Calm Calm - N/A   Clear
4:53 AM 48.9 °F 44.1 °F 83% 30.25 in 10.0 mi Calm Calm - N/A   Clear
5:53 AM 48.9 °F 44.1 °F 83% 30.25 in 10.0 mi Calm Calm - N/A   Clear
6:53 AM 48.2 °F 42.8 °F 82% 30.27 in 10.0 mi Calm Calm - N/A   Clear
7:53 AM 48.0 °F 44.1 °F 86% 30.28 in 10.0 mi Calm Calm - N/A   Clear
8:53 AM 54.0 °F 48.0 °F 80% 30.29 in 10.0 mi Calm Calm - N/A   Clear
9:53 AM 61.0 °F 48.9 °F 64% 30.30 in 10.0 mi Calm Calm - N/A   Clear
10:53 AM 66.2 °F 46.4 °F 49% 30.30 in 10.0 mi Calm Calm - N/A   Clear
11:53 AM 71.1 °F 48.0 °F 44% 30.29 in 10.0 mi NNW 3.5 mph - N/A   Clear
12:37 PM 71.6 °F 46.4 °F 41% 30.29 in 1.8 mi Calm Calm - N/A   Haze
12:53 PM 73.0 °F 46.0 °F 38% 30.28 in 10.0 mi Calm Calm - N/A   Clear
1:53 PM 73.9 °F 46.9 °F 38% 30.27 in 10.0 mi Calm Calm - N/A   Clear
2:53 PM 75.9 °F 44.1 °F 32% 30.25 in 10.0 mi Calm Calm - N/A   Clear
3:53 PM 75.9 °F 45.0 °F 33% 30.24 in 10.0 mi Calm Calm - N/A   Clear
4:53 PM 75.9 °F 45.0 °F 33% 30.24 in 10.0 mi Calm Calm - N/A   Clear
5:53 PM 75.9 °F 48.0 °F 37% 30.24 in 10.0 mi Calm Calm - N/A   Clear
6:53 PM 71.6 °F 51.8 °F 50% 30.25 in 10.0 mi Calm Calm - N/A   Clear
7:53 PM 61.0 °F 51.1 °F 70% 30.26 in 10.0 mi Calm Calm - N/A   Clear
8:53 PM 59.0 °F 50.0 °F 72% 30.27 in 10.0 mi Calm Calm - N/A   Clear
9:53 PM 57.0 °F 48.9 °F 74% 30.28 in 10.0 mi Calm Calm - N/A   Clear
10:53 PM 53.1 °F 48.9 °F 86% 30.29 in 10.0 mi ENE 3.5 mph - N/A   Clear
11:53 PM 53.1 °F 46.9 °F 80% 30.29 in 10.0 mi NE 5.8 mph - N/A   Clear